Вернуться в каталог

STARLINK-31275

АктивенСвязьVLEO
NORAD 59197·PAYLOAD·🇺🇸 United States

Запущен Mar 10, 2024 с Cape Canaveral Space Force Station

Loading…

Ближайшие Пролёты (ближайшие 24 часа)

TLE

СвежийSource: CelesTrak SupGP

Эпоха: Sep 14, 2026, 22:29 UTC

1 59197C 24045V   26257.93729167  .00029602  00000+0  10723-2 0  2572
2 59197  43.0015 104.0138 0001321 274.8928  10.6711 15.27558766    19

Отслеживайте STARLINK-31275 в реальном времени с AllMySat

Download on the App Store